Regional Weather Roundup
Issued by NWS

Home | Current Version | Previous Version | Graphics & Text | Print | Product List | Glossary On
Versions: 1 2 3 4 5 6 7 8 9 10 11 12 13 14 15 16 17 18 19 20 21 22 23 24 25 26 27 28 29 30 31 32 33 34 35 36 37 38 39 40 41 42 43 44 45 46 47 48 49 50
577
ASUS45 KBOU 281907
RWRCO

WEATHER ROUNDUP FOR COLORADO
NATIONAL WEATHER SERVICE DENVER/BOULDER CO
100 PM MDT SUN MAY 28 2017

NOTE: "FAIR" INDICATES FEW OR NO CLOUDS BELOW 12000 FEET WITH NO
SIGNIFICANT WEATHER AND/OR OBSTRUCTIONS TO VISIBILITY.

COZ001>005-013-030-031-282000-
...NORTHWEST COLORADO...

CITY           SKY/WX    TMP DP  RH WIND       PRES   REMARKS
CRAIG          FAIR      64  31  28 NW8       30.33F
HAYDEN         FAIR      59  28  31 CALM      30.34S
MEEKER         FAIR      65  27  23 S6        30.30F
RABBIT EARS PA NOT AVBL
STEAMBOAT SPGS NOT AVBL
WALDEN         NOT AVBL
$$

COZ006>008-011-282000-
...WEST CENTRAL VALLEYS...

CITY           SKY/WX    TMP DP  RH WIND       PRES   REMARKS
GRAND JUNCTION FAIR      74  18  12 SE12G18   30.22F
MONTROSE       FAIR      67  24  19 VRB5      30.28F
EAGLE          SUNNY     61  28  29 N3        30.34F
RIFLE          FAIR      68  23  18 CALM      30.27F
DELTA          FAIR      73  20  14 SW3       30.26F
NUCLA          FAIR      70  18  13 N13       30.29F
$$

COZ017>023-064>068-282000-
...SOUTHWEST COLORADO...

CITY           SKY/WX    TMP DP  RH WIND       PRES   REMARKS
DURANGO        FAIR      66  10  11 VRB5      30.28F
CORTEZ         FAIR      70  17  13 MISG      30.25F
PAGOSA SPRINGS FAIR      63   6  10 S5G16     30.34F
TELLURIDE      FAIR      59   6  12 W7        30.39S
WOLF CREEK PAS NOT AVBL
$$

COZ009-010-012-014-032>034-037-058>063-282000-
...CENTRAL COLORADO...

CITY           SKY/WX    TMP DP  RH WIND       PRES   REMARKS
ASPEN          FAIR      58  21  24 SE3       30.33F
BUENA VISTA    FAIR      59   9  14 SE3       30.35F
COPPER MTN     NOT AVBL
BERTHOUD PASS  NOT AVBL
COTTONWOOD PAS NOT AVBL
GUNNISON       FAIR      58   6  12 CALM      30.34F
KREMMLING      NOT AVBL
LEADVILLE      FAIR      48  11  22 SW9       30.41F
SALIDA         FAIR      63  15  15 N7        30.40F
SUNLIGHT       NOT AVBL
WILKERSON PASS NOT AVBL
$$

COZ069>075-282000-
...SAN LUIS VALLEY/SANGRE DE CRISTO MOUNTAINS...

CITY           SKY/WX    TMP DP  RH WIND       PRES   REMARKS
ALAMOSA        FAIR      59  14  17 E8        30.34F
DEL NORTE      NOT AVBL
LA VETA PASS   NOT AVBL
SAGUACHE       NOT AVBL
$$

COZ035-036-038>040-282000-
...NORTHERN COLORADO FRONT RANGE...

CITY           SKY/WX    TMP DP  RH WIND       PRES   REMARKS
DENVER INTL AP FAIR      66  29  24 NE8       30.27F
DMNS CITY PARK   N/A     67  31  26 E5G14     30.26F
AURORA         MOSUNNY   65  30  27 N9        30.29F
FRONT RANGE AP MOSUNNY   66  37  34 NW9G17    30.28
ERIE MUNI ARPT NOT AVBL
BOULDER MUN AP NOT AVBL
CENTENNIAL     FAIR      64  31  28 NE9       30.29F
BROOMFIELD     MOSUNNY   66  30  26 CALM      30.28F
FORT COLLINS   PTSUNNY   71  34  25 N12G18    30.24F
LONGMONT       NOT AVBL
$$

COZ041-046-047-076>085-087-088-282000-
...PIKES PEAK/PALMER DIVIDE AND SOUTHERN FOOTHILLS...

CITY           SKY/WX    TMP DP  RH WIND       PRES   REMARKS
COLO. SPRINGS  FAIR      65  26  23 E7        30.30F
A. F. ACADEMY  FAIR      62  27  26 NW10      30.30F
SCHRIEVER AFB  FAIR      62  27  25 NE6       30.31F
CHEYENNE MTN   FAIR      61  26  27 S7        30.28F
ELLICOTT       FAIR     N/A N/A N/A N8        30.29F
FALCON         FAIR      62  27  25 N9G18     30.34S
FORT CARSON    FAIR      65  27  23 SE7       30.29F
LIMON          PTSUNNY   65  37  35 NW15G22   30.27F
MONUMENT HILL  NOT AVBL
CANON CITY     NOT AVBL
WALSENBURG     FAIR      64  37  36 CALM      30.31F
TRINIDAD       FAIR      66  30  26 NE8       30.30F
$$

COZ042>045-048>051-090-091-282000-
...NORTHEAST COLORADO...

CITY           SKY/WX    TMP DP  RH WIND       PRES   REMARKS
GREELEY ARPT   PTSUNNY   68  33  27 N5        30.23F
AKRON          FAIR      69  34  27 VRB5G18   30.22F
BURLINGTON     FAIR      71  41  33 N13G18    30.21S
WRAY           FAIR      73  32  21 NW12      30.17F
YUMA           NOT AVBL
STERLING       NOT AVBL
HOLYOKE        NOT AVBL
FORT MORGAN    FAIR      72  29  20 NW12      30.22F
$$

COZ086-089-092>099-282000-
...SOUTHEAST COLORADO...

CITY           SKY/WX    TMP DP  RH WIND       PRES   REMARKS
PUEBLO         FAIR      72  33  24 MISG      30.25F
LA JUNTA       FAIR      71  38  29 VRB5      30.23F
LAMAR          FAIR      74  37  26 MISG      30.19S
SPRINGFIELD      N/A     68  39  34 N8G22     30.23F
$$




USA.gov is the U.S. government's official web portal to all federal, state and local government web resources and services.